User: anonymous   Login
Location: Wawayanda State Park
(41.1833°N, 74.4333°W)
Time: 11:17:56
(UTC-05:00)
Language:

Landsat 7 - Orbit

View from above orbital plane
View from above orbital plane
View from above satellite
View from above satellite

Ground track
Ground track

The orbit data is extracted from the following two-line orbital elements,

1 25682U 99020A   16339.10428071  .00000081  00000-0  27885-4 0  9991
2 25682  98.1976  47.0409 0000605  54.8304 305.2999 14.57115706938187
Epoch (UTC): 04 December 2016 02:30:09
Eccentricity: 0.0000605
inclination: 98.1976°
perigee height: 702 km
apogee height: 703 km
right ascension of ascending node: 47.0409°
argument of perigee: 54.8304°
revolutions per day: 14.57115706
mean anomaly at epoch: 305.2999°
orbit number at epoch: 93818

The dashed part of the orbit path shows where the satellite is in the earth's shadow,  

DLR